Date String (YYYY-MM-DD hh:mm:ss) UTC,Instrument flags,absolute air pressure of the measurement (hPa),sample flow rate (lpm),inlet stack bypass flow (lpm),air temperature of the measurement (°C),ambient temperature measured by the external sensor (°C),aerosol sample conditioner tube jacket temperature (°C),OPC LED temperature (°C),internal box temperature (°C),relative humidity of the measurement (%),span deviation,mass concentration of particles derived from Lorenz-Mie calculation of OPC scattering (μg/m³),mass concentration of particles derived from Lorenz-Mie calculation of OPC scattering (μg/m³),mass concentration of particles derived from Lorenz-Mie calculation of OPC scattering (μg/m³)
DateTimeUTC,F1_M11,P_M11,Q1_M11,Q2_M11,T1_M11,T2_M11,T3_M11,T4_M11,T5_M11,U1_M11,ZSPAN_M11,X0_M11,X2_M11,X1_M11
2023-10-18 09:00:00,SystemResetWarning,0830.6,5.00,000.00,028.8,027.5,000.0,037.2,030.5,17.1,0000.0,0012.72,0003.56,0002.74
2023-10-18 09:01:00,SystemResetWarning,0830.7,4.99,000.00,028.8,027.5,000.0,037.2,030.5,17.1,0000.0,0015.29,0003.71,0002.72
2023-10-18 09:02:00,SystemResetWarning,0830.8,5.00,000.00,028.9,027.5,000.0,037.2,030.6,17.1,0000.0,0016.94,0003.85,0002.72
2023-10-18 09:03:00,SystemResetWarning,0830.8,5.00,000.00,028.9,027.5,000.0,037.3,030.6,17.1,0000.0,0018.58,0003.99,0002.73
2023-10-18 09:04:00,SystemResetWarning,0830.8,5.01,000.00,028.9,027.6,000.0,037.3,030.6,17.1,0000.0,0020.48,0004.14,0002.72
2023-10-18 09:05:00,SystemResetWarning,0830.8,5.00,000.00,028.9,027.6,000.0,037.3,030.6,17.2,0000.0,0021.96,0004.26,0002.71
2023-10-18 09:06:00,SystemResetWarning,0830.9,5.00,000.00,028.9,027.6,000.0,037.3,030.6,17.2,0000.0,0023.05,0004.43,0002.76
2023-10-18 09:07:00,SystemResetWarning,0831.0,5.00,000.00,028.9,027.6,000.0,037.3,030.6,17.1,0000.0,0025.65,0004.62,0002.79
2023-10-18 09:08:00,SystemResetWarning,0831.0,5.00,000.00,028.9,027.6,000.0,037.3,030.6,16.8,0000.0,0027.90,0004.80,0002.82
2023-10-18 09:09:00,SystemResetWarning,0831.1,5.00,000.00,028.9,027.6,000.0,037.3,030.5,17.0,0000.0,0030.51,0005.04,0002.82
2023-10-18 09:10:00,SystemResetWarning,0831.1,5.00,000.00,028.9,027.6,000.0,037.3,030.5,17.2,0000.0,0031.06,0005.12,0002.81
2023-10-18 09:11:00,SystemResetWarning,0831.1,5.00,000.00,028.9,027.5,000.0,037.3,030.5,16.9,0000.0,0030.77,0005.24,0002.81
2023-10-18 09:12:00,SystemResetWarning,0831.1,5.00,000.00,028.9,027.5,000.0,037.3,030.5,16.8,0000.0,0032.82,0005.30,0002.82
2023-10-18 09:13:00,SystemResetWarning,0831.2,5.00,000.00,028.9,027.5,000.0,037.3,030.5,16.9,0000.0,0035.69,0005.36,0002.82
2023-10-18 09:14:00,SystemResetWarning,0831.2,5.00,000.00,028.9,027.5,000.0,037.3,030.5,17.1,0000.0,0035.93,0005.37,0002.82
2023-10-18 09:15:00,SystemResetWarning,0831.2,5.00,000.00,028.9,027.5,000.0,037.3,030.5,17.1,0000.0,0036.97,0005.38,0002.81
2023-10-18 09:16:00,SystemResetWarning,0831.2,4.99,000.00,028.9,027.5,000.0,037.3,030.5,17.1,0000.0,0038.60,0005.36,0002.78
2023-10-18 09:17:00,SystemResetWarning,0831.3,5.00,000.00,028.9,027.5,000.0,037.3,030.5,17.1,0000.0,0039.84,0005.38,0002.76
2023-10-18 09:18:00,SystemResetWarning,0831.3,5.00,000.00,028.9,027.5,000.0,037.3,030.5,17.2,0000.0,0041.14,0005.32,0002.73
2023-10-18 09:19:00,SystemResetWarning,0831.3,5.00,000.00,028.9,027.5,000.0,037.3,030.5,17.5,0000.0,0039.57,0005.27,0002.69
2023-10-18 09:20:00,SystemResetWarning,0831.3,5.00,000.00,028.9,027.5,000.0,037.3,030.5,17.5,0000.0,0038.38,0005.13,0002.65
2023-10-18 09:21:00,SystemResetWarning,0831.3,5.00,000.00,028.9,027.5,000.0,037.3,030.5,17.5,0000.0,0037.51,0005.04,0002.63
2023-10-18 09:22:00,SystemResetWarning,0831.3,5.00,000.00,028.9,027.5,000.0,037.3,030.5,17.6,0000.0,0037.94,0005.04,0002.59
2023-10-18 09:23:00,SystemResetWarning,0831.3,5.00,000.00,028.9,027.5,000.0,037.3,030.5,17.5,0000.0,0035.93,0005.00,0002.55
2023-10-18 09:24:00,SystemResetWarning,0831.3,5.00,000.00,028.9,027.5,000.0,037.4,030.5,17.6,0000.0,0032.11,0004.87,0002.52
2023-10-18 09:25:00,SystemResetWarning,0831.3,5.00,000.00,028.9,027.5,000.0,037.3,030.5,17.7,0000.0,0031.49,0004.81,0002.48
2023-10-18 09:26:00,SystemResetWarning,0831.3,5.00,000.00,028.9,027.5,000.0,037.4,030.5,17.8,0000.0,0030.03,0004.75,0002.45
2023-10-18 09:27:00,SystemResetWarning,0831.3,5.00,000.00,028.9,027.5,000.0,037.4,030.5,17.9,0000.0,0027.11,0004.73,0002.43
2023-10-18 09:28:00,SystemResetWarning,0831.3,5.00,000.00,028.9,027.5,000.0,037.4,030.5,17.9,0000.0,0025.59,0004.71,0002.41
2023-10-18 09:29:00,SystemResetWarning,0831.4,5.00,000.00,028.9,027.5,000.0,037.4,030.5,17.8,0000.0,0023.23,0004.66,0002.37
2023-10-18 09:30:00,SystemResetWarning,0831.3,5.00,000.00,028.9,027.5,000.0,037.4,030.5,17.7,0000.0,0023.53,0004.63,0002.35
2023-10-18 09:31:00,SystemResetWarning,0831.4,5.00,000.00,028.9,027.5,000.0,037.4,030.5,17.7,0000.0,0023.77,0004.62,0002.34
2023-10-18 09:32:00,SystemResetWarning,0831.4,5.00,000.00,028.9,027.5,000.0,037.4,030.5,17.7,0000.0,0022.75,0004.64,0002.33
2023-10-18 09:33:00,SystemResetWarning,0831.4,5.00,000.00,028.9,027.5,000.0,037.4,030.5,17.7,0000.0,0020.50,0004.50,0002.31
2023-10-18 09:34:00,SystemResetWarning,0831.4,5.00,000.00,028.9,027.5,000.0,037.4,030.5,17.7,0000.0,0019.48,0004.47,0002.32
2023-10-18 09:35:00,SystemResetWarning,0831.4,5.00,000.00,028.9,027.5,000.0,037.4,030.5,17.8,0000.0,0020.35,0004.52,0002.30
2023-10-18 09:36:00,SystemResetWarning,0831.4,5.00,000.00,028.9,027.5,000.0,037.4,030.5,17.8,0000.0,0021.40,0004.57,0002.29
2023-10-18 09:37:00,SystemResetWarning,0831.5,5.00,000.00,028.9,027.5,000.0,037.4,030.5,17.8,0000.0,0022.23,0004.67,0002.29
2023-10-18 09:38:00,SystemResetWarning,0831.5,5.00,000.00,028.9,027.5,000.0,037.4,030.4,17.8,0000.0,0023.15,0004.70,0002.30
2023-10-18 09:39:00,SystemResetWarning,0831.5,5.00,000.00,028.9,027.5,000.0,037.4,030.5,17.9,0000.0,0024.38,0004.70,0002.31
2023-10-18 09:40:00,SystemResetWarning,0831.5,5.00,000.00,028.9,027.5,000.0,037.4,030.5,17.9,0000.0,0024.83,0004.75,0002.33
2023-10-18 09:41:00,SystemResetWarning,0831.6,5.00,000.00,028.9,027.5,000.0,037.4,030.5,17.9,0000.0,0025.20,0004.84,0002.35
2023-10-18 09:42:00,SystemResetWarning,0831.5,5.00,000.00,028.9,027.5,000.0,037.4,030.5,18.0,0000.0,0025.33,0004.89,0002.36
2023-10-18 09:43:00,SystemResetWarning,0831.5,5.00,000.00,028.9,027.5,000.0,037.4,030.5,18.0,0000.0,0025.52,0004.91,0002.37
2023-10-18 09:44:00,SystemResetWarning,0831.4,5.00,000.00,028.9,027.5,000.0,037.4,030.5,18.0,0000.0,0026.19,0004.91,0002.39
2023-10-18 09:45:00,SystemResetWarning,0831.5,5.00,000.00,028.9,027.5,000.0,037.4,030.4,18.0,0000.0,0027.86,0004.88,0002.39
2023-10-18 09:46:00,SystemResetWarning,0831.5,5.00,000.00,028.9,027.4,000.0,037.4,030.4,18.0,0000.0,0027.61,0004.88,0002.41
2023-10-18 09:47:00,SystemResetWarning,0831.5,5.00,000.00,028.9,027.4,000.0,037.4,030.4,18.0,0000.0,0026.16,0004.87,0002.44
2023-10-18 09:48:00,SystemResetWarning,0831.5,4.99,000.00,028.9,027.4,000.0,037.4,030.4,18.0,0000.0,0027.27,0004.90,0002.47
2023-10-18 09:49:00,SystemResetWarning,0831.6,4.99,000.00,028.9,027.4,000.0,037.4,030.4,18.1,0000.0,0027.00,0004.91,0002.49
2023-10-18 09:50:00,SystemResetWarning,0831.6,5.00,000.00,028.8,027.4,000.0,037.4,030.4,18.1,0000.0,0026.76,0004.86,0002.50
2023-10-18 09:51:00,SystemResetWarning,0831.5,5.00,000.00,028.8,027.4,000.0,037.4,030.4,18.1,0000.0,0028.12,0004.85,0002.52
2023-10-18 09:52:00,SystemResetWarning,0831.5,5.00,000.00,028.8,027.3,000.0,037.4,030.4,18.1,0000.0,0028.21,0004.74,0002.54
2023-10-18 09:53:00,SystemResetWarning,0831.4,5.01,000.00,028.8,027.3,000.0,037.4,030.3,18.1,0000.0,0026.98,0004.67,0002.57
2023-10-18 09:54:00,SystemResetWarning,0831.5,5.00,000.00,028.8,027.3,000.0,037.4,030.3,18.1,0000.0,0026.85,0004.66,0002.60
2023-10-18 09:55:00,SystemResetWarning,0831.6,5.00,000.00,028.8,027.3,000.0,037.3,030.3,18.1,0000.0,0028.58,0004.73,0002.62
2023-10-18 09:56:00,SystemResetWarning,0831.6,5.00,000.00,028.8,027.3,000.0,037.3,030.3,18.1,0000.0,0028.00,0004.80,0002.63
2023-10-18 09:57:00,SystemResetWarning,0831.7,5.00,000.00,028.8,027.3,000.0,037.3,030.3,18.1,0000.0,0028.30,0004.89,0002.65
2023-10-18 09:58:00,SystemResetWarning,0831.7,5.00,000.00,028.8,027.3,000.0,037.3,030.3,18.1,0000.0,0028.68,0004.93,0002.66
2023-10-18 09:59:00,SystemResetWarning,0831.6,4.99,000.00,028.8,027.3,000.0,037.3,030.3,18.1,0000.0,0028.23,0004.93,0002.65
